This is the latest recevied weather packets stored in our database for station/object SP1BMW-13. If no packets are shown the sender has not sent any weather packets the latest 10 day(s).
| Time | Temp. | Humidity | Pressure | Rain* | Wind** | Luminosity | Snow |
|---|---|---|---|---|---|---|---|
| 1787762774 | 22.78° C | 46% | 1020.4 hPa | 0 mm | 0.45 m/s, 39° | 82 W/m² | - |
| 1787762713 | 22.78° C | 44% | 1020.4 hPa | 0 mm | 0.89 m/s, 40° | 75 W/m² | - |
| 1787762654 | 22.78° C | 44% | 1020.2 hPa | 0 mm | 0.45 m/s, 73° | 70 W/m² | - |
| 1787762594 | 22.78° C | 44% | 1020.5 hPa | 0 mm | 0.45 m/s, 51° | 68 W/m² | - |
| 1787762533 | 23.33° C | 44% | 1020.3 hPa | 0 mm | 0.89 m/s, 49° | 65 W/m² | - |
| 1787762473 | 23.33° C | 44% | 1020.4 hPa | 0 mm | 0.89 m/s, 45° | 59 W/m² | - |
| 1787762414 | 23.33° C | 44% | 1020.3 hPa | 0 mm | 0.45 m/s, 107° | 59 W/m² | - |
| 1787762354 | 23.33° C | 44% | 1020.1 hPa | 0 mm | 0.45 m/s, 35° | 58 W/m² | - |
| 1787762293 | 23.33° C | 44% | 1020.6 hPa | 0 mm | 0.45 m/s, 37° | 56 W/m² | - |
| 1787762233 | 23.33° C | 45% | 1020.2 hPa | 0 mm | 0 m/s | 60 W/m² | - |
| 1787762173 | 23.33° C | 45% | 1020.2 hPa | 0 mm | 0.45 m/s, 53° | 76 W/m² | - |
| 1787762114 | 23.33° C | 44% | 1020.4 hPa | 0 mm | 0 m/s | 94 W/m² | - |
| 1787762053 | 23.33° C | 45% | 1020.3 hPa | 0 mm | 0 m/s | 99 W/m² | - |
| 1787761994 | 23.33° C | 43% | 1020.4 hPa | 0 mm | 0.89 m/s, 73° | 102 W/m² | - |
| 1787761933 | 23.33° C | 44% | 1020.3 hPa | 0 mm | 0.45 m/s, 36° | 107 W/m² | - |
| 1787761874 | 23.33° C | 43% | 1020.4 hPa | 0 mm | 0 m/s | 109 W/m² | - |
| 1787761814 | 23.33° C | 44% | 1020.4 hPa | 0 mm | 0 m/s | 111 W/m² | - |
| 1787761754 | 23.33° C | 44% | 1020.3 hPa | 0 mm | 0 m/s | 114 W/m² | - |
| 1787761694 | 23.33° C | 43% | 1020.4 hPa | 0 mm | 0.45 m/s, 50° | 117 W/m² | - |
| 1787761634 | 23.33° C | 42% | 1020.5 hPa | 0 mm | 1.79 m/s, 59° | 119 W/m² | - |
| 1787761574 | 23.33° C | 43% | 1020.4 hPa | 0 mm | 0.45 m/s, 34° | 121 W/m² | - |
| 1787761514 | 23.33° C | 44% | 1020.4 hPa | 0 mm | 0 m/s | 124 W/m² | - |
| 1787761454 | 23.33° C | 42% | 1020.3 hPa | 0 mm | 0.89 m/s, 38° | 127 W/m² | - |
| 1787761394 | 23.33° C | 42% | 1020.3 hPa | 0 mm | 0.89 m/s, 33° | 129 W/m² | - |
| 1787761334 | 23.33° C | 42% | 1020.3 hPa | 0 mm | 0.45 m/s, 45° | 129 W/m² | - |
* Rain latest hour (hover to see other rain measurements)
** Current wind speed in m/s (hover to see current wind gust speed)